Location: Township of Marena
(38.1747°N, 99.6798°W)
Time: 12:03:23
(UTC+00:00)

Hubble Space Telescope - Pass Details

Date: 26 October 2020
Orbit: 536 x 539 km, 28.5° (Epoch: 25 November)

Event Time Altitude Azimuth Distance (km) Brightness Sun altitude
Rises 00:19:58 0° 252° (WSW) 2,667 6.6 -7.2°
Reaches altitude 10° 00:23:33 10° 219° (SW) 1,776 4.2 -7.9°
Maximum altitude 00:25:05 12° 197° (SSW) 1,662 3.6 -8.2°
Drops below altitude 10° 00:26:36 10° 176° (S) 1,775 3.5 -8.5°
Sets 00:30:11 0° 143° (SE) 2,664 4.0 -9.2°
